Wind_Speed
11 11 11 11 11 11 11 10 10 10 10 10 10 10 11 11 12 12 12 12 12 12 13 13 13 13 12 12 12 11 11 11 10 10 10 11 11 11 11 10 11 10 11
11 11 12 12 12 11 12 12 11 11 11 11 11 11 11 12 12 13 13 13 13 13 13 14 14 14 13 13 13 12 12 11 11 11 11 11 11 11 12 12 11 11 11
14 13 13 13 12 12 13 13 12 12 12 11 11 12 12 13 13 14 14 14 14 15 15 14 15 15 14 14 14 14 13 13 12 12 12 12 12 12 12 13 13 13 13
16 14 13 13 13 13 13 14 14 13 13 13 12 13 13 14 14 14 15 15 16 16 16 16 16 16 15 15 15 15 14 14 14 14 13 13 13 13 13 13 14 14 13
16 15 14 14 14 14 14 14 14 14 13 13 13 14 14 15 15 15 16 17 17 17 17 17 17 17 17 16 16 16 15 15 15 15 15 15 14 14 14 14 14 14 14
16 14 14 15 15 15 15 15 15 15 14 14 14 15 15 15 15 16 16 17 17 18 18 18 18 18 18 18 18 17 17 16 16 16 16 16 16 15 15 15 15 14 14
17 16 16 16 16 16 16 15 16 16 16 16 15 15 15 16 16 17 18 18 18 19 19 19 19 19 19 19 18 18 18 18 17 17 17 17 16 17 16 16 16 16 16
18 18 17 17 16 16 16 16 16 16 16 16 16 16 16 17 17 18 18 19 19 20 21 20 19 19 19 19 19 19 19 19 19 18 18 18 18 17 17 17 17 16 16
18 18 18 17 17 17 18 17 17 17 17 18 18 18 18 18 18 18 18 19 19 20 20 20 19 20 19 19 19 20 20 20 20 19 19 19 18 18 18 17 17 17 17
19 18 18 18 18 18 19 19 18 18 18 18 19 19 20 19 19 19 19 20 20 19 20 20 20 21 20 20 20 20 20 21 21 20 20 19 19 19 19 19 18 18 18
19 19 19 19 18 19 19 19 19 19 19 19 20 21 22 21 20 20 20 20 21 21 21 21 21 22 21 21 21 21 21 21 22 22 22 21 20 20 20 20 20 20 19
19 19 20 19 19 19 19 20 20 21 20 20 22 22 23 22 21 21 21 21 21 22 22 22 22 22 22 22 22 23 22 22 22 23 23 22 22 22 21 21 21 21 21
20 20 20 21 21 21 21 21 21 22 22 22 22 23 23 22 22 21 21 22 22 23 23 23 23 23 23 24 24 24 24 23 23 24 24 24 23 23 23 23 23 23 22
21 21 22 22 22 22 23 23 23 23 23 23 23 23 23 23 23 22 22 23 23 23 23 23 23 23 23 23 24 24 25 25 25 25 25 24 24 24 24 24 24 24 24
23 23 23 22 23 23 24 24 24 24 24 23 23 23 23 24 23 23 22 23 23 23 23 23 24 24 23 23 24 24 26 26 26 25 25 25 25 25 25 25 25 25 25
24 24 24 23 23 24 24 24 25 25 25 25 24 23 24 24 23 23 23 24 24 23 23 24 24 23 24 24 24 24 26 26 27 26 26 26 25 26 26 26 26 25 26
26 25 25 24 25 25 26 26 26 25 25 26 26 25 24 24 25 24 25 25 25 25 25 24 23 23 23 24 25 24 25 26 27 26 27 27 26 26 26 26 27 27 27
27 27 26 26 27 26 27 28 27 27 26 27 27 27 26 26 26 25 26 25 25 26 25 24 24 24 24 24 24 24 24 24 25 25 26 26 26 26 26 27 27 27 28
28 27 27 27 27 28 28 27 27 27 27 27 27 28 28 27 27 26 26 26 25 26 25 24 24 24 25 25 25 25 25 24 24 25 26 26 26 27 27 27 28 28 28
27 27 28 29 29 28 28 29 28 28 28 28 28 28 28 27 26 25 26 25 25 25 24 24 24 24 25 25 25 25 25 25 25 26 26 26 27 27 27 27 28 29 30
27 28 28 28 29 30 29 28 28 29 28 28 28 28 28 27 27 26 25 26 25 25 24 25 24 25 25 25 26 26 25 25 25 25 26 27 28 28 28 28 28 29 30
29 29 29 29 30 29 28 28 28 29 29 28 28 28 28 27 27 26 26 26 25 24 24 25 25 25 25 25 26 26 25 26 26 26 27 27 28 29 29 29 30 29 30
29 29 29 29 29 29 28 28 28 30 30 30 30 29 27 27 26 26 26 25 24 24 24 25 25 26 26 26 26 26 25 25 26 26 27 27 28 29 29 30 29 29 30
29 29 29 29 29 29 29 30 29 29 29 29 28 27 27 27 26 24 24 24 24 24 24 24 24 25 26 25 26 26 26 26 27 26 27 27 28 28 29 29 29 29 30
29 29 29 29 28 29 29 29 29 29 28 27 27 27 27 26 25 24 23 23 24 24 24 24 24 25 24 24 24 25 26 27 27 26 26 27 27 28 28 29 29 30 30
29 29 29 29 29 29 29 28 28 28 27 26 26 26 25 24 24 23 23 23 23 23 23 23 24 24 24 24 24 25 26 26 26 27 27 27 27 28 29 29 30 31 31
Wind_Direction
346 343 340 337 337 336 334 333 330 332 331 328 327 324 320 318 317 317 316 314 313 312 309 307 306 303 301 298 295 292 289 285 280 277 272 267 267 262 258 254 245 242 239
340 336 333 332 333 334 332 332 330 329 330 327 326 323 319 315 312 312 311 310 309 308 306 304 301 299 298 296 293 290 286 282 279 276 272 270 266 263 257 252 249 243 240
335 334 331 330 330 330 327 328 329 329 329 327 324 320 318 314 310 307 306 305 303 301 299 298 297 294 293 292 291 288 284 280 277 275 272 270 266 263 258 253 250 244 240
331 329 328 329 329 329 327 326 326 326 325 323 322 320 318 315 311 306 304 302 299 297 295 293 292 290 288 287 288 286 282 278 276 273 271 268 265 262 258 252 247 244 240
332 327 325 326 327 328 327 326 324 324 323 321 320 319 316 314 309 305 303 300 297 295 293 291 290 288 287 285 284 283 281 277 275 272 270 267 265 261 257 251 247 246 242
331 328 327 328 327 326 325 323 320 319 318 315 314 315 313 311 307 304 303 301 297 295 293 291 289 287 285 284 282 281 279 276 273 272 271 268 264 260 257 253 251 247 242
328 327 326 326 327 325 322 320 316 315 315 313 311 311 310 308 305 303 302 300 297 295 292 290 286 284 283 282 279 277 275 274 271 270 269 268 265 263 259 255 252 247 243
324 324 324 325 325 322 319 317 315 313 312 310 309 308 307 306 303 302 299 296 295 295 293 289 285 283 283 281 278 276 273 271 270 268 266 266 265 263 260 257 254 251 247
321 320 319 318 319 317 314 313 313 312 312 310 307 305 304 304 301 298 296 294 294 294 292 290 288 285 283 281 278 275 272 268 267 267 264 263 263 262 260 259 256 252 249
320 319 317 316 316 314 312 311 311 309 307 309 307 306 303 301 300 295 293 291 292 290 290 288 288 288 284 282 278 275 274 269 266 264 263 261 261 262 260 258 256 254 250
318 318 317 314 313 312 311 309 309 307 304 305 306 305 303 300 298 294 291 288 288 288 289 287 286 286 285 283 280 277 274 271 269 265 262 261 261 261 259 258 258 255 252
318 318 317 313 311 310 310 308 306 303 302 303 302 302 302 298 295 292 289 287 286 287 287 286 284 283 283 282 280 277 275 272 270 266 264 262 261 261 261 259 259 255 253
316 316 314 310 310 309 307 305 303 303 301 300 300 298 299 298 293 290 289 288 285 284 284 284 284 284 283 281 280 277 273 271 268 263 262 262 261 260 261 259 258 256 254
315 315 312 309 307 307 305 305 303 302 301 300 299 299 299 298 294 290 289 288 286 283 283 283 283 285 284 283 281 278 273 271 268 264 261 261 260 259 259 258 257 256 256
312 311 309 306 305 305 304 303 303 301 299 297 297 299 299 298 295 293 291 288 286 284 282 282 283 282 281 281 280 278 274 271 268 264 260 261 259 258 258 258 256 255 255
308 307 304 303 303 302 301 301 300 299 298 297 296 296 297 295 293 294 288 286 286 284 282 281 281 279 278 276 277 277 275 271 267 264 261 260 261 259 258 256 255 254 253
306 305 302 300 299 300 300 301 301 299 298 296 294 292 295 294 291 290 290 288 287 286 283 281 279 278 277 276 276 276 275 273 267 265 263 261 260 259 259 258 256 254 253
303 303 301 299 298 299 301 300 299 298 296 294 295 292 292 291 289 288 290 291 288 288 283 280 279 278 276 276 276 276 276 273 269 267 266 264 262 260 259 258 257 255 253
305 304 302 301 299 297 297 299 298 298 296 294 294 296 295 292 288 288 288 290 288 287 283 278 278 277 276 276 275 275 274 270 268 267 267 266 263 261 260 259 257 255 253
307 304 301 301 300 298 297 298 298 296 295 293 293 294 295 292 288 287 287 287 286 285 281 278 275 274 274 274 274 273 272 271 270 268 267 267 265 262 260 259 258 256 255
307 307 305 303 303 301 300 299 298 297 295 294 295 294 294 292 289 290 289 287 285 283 281 280 276 273 273 273 274 272 271 270 269 268 267 266 264 262 260 259 257 257 258
308 306 306 304 303 301 301 301 297 297 297 295 294 293 293 292 291 290 288 287 284 282 280 280 280 275 273 273 274 272 270 269 270 269 266 265 263 262 261 261 260 258 257
306 305 305 305 303 303 301 300 297 297 296 294 293 291 290 290 291 289 286 284 282 281 281 280 279 276 273 273 273 273 271 267 267 268 268 267 265 263 261 260 259 258 257
307 305 304 305 304 303 303 300 298 296 295 293 291 290 289 289 289 288 288 283 281 281 281 280 279 278 275 273 273 272 271 269 268 267 268 267 266 264 263 261 260 259 258
307 307 306 307 309 306 302 300 300 301 296 293 289 289 289 288 287 287 288 288 284 281 281 282 280 278 279 277 274 272 271 272 271 269 267 267 267 265 262 261 259 259 259
307 307 307 309 310 310 307 305 301 302 298 295 293 292 291 289 288 289 290 291 289 286 285 284 283 282 281 278 276 275 274 273 272 272 271 270 269 266 263 261 259 259 258
Height
5883 5881 5880 5879 5878 5877 5876 5874 5873 5873 5873 5872 5871 5871 5870 5870 5869 5869 5868 5868 5867 5867 5867 5866 5866 5866 5865 5865 5865 5865 5865 5865 5865 5865 5865 5866 5866 5867 5867 5867 5868 5868 5869
5882 5880 5879 5878 5877 5875 5875 5874 5872 5871 5871 5870 5870 5869 5869 5868 5867 5867 5866 5866 5865 5865 5865 5864 5864 5864 5863 5863 5863 5863 5863 5863 5863 5863 5863 5863 5864 5864 5865 5865 5866 5866 5867
5881 5879 5878 5877 5875 5874 5873 5872 5871 5870 5869 5868 5868 5867 5867 5866 5865 5865 5864 5864 5863 5862 5862 5862 5861 5861 5861 5861 5861 5861 5861 5861 5861 5861 5861 5861 5861 5862 5862 5863 5864 5864 5865
5880 5879 5877 5875 5874 5873 5872 5871 5869 5868 5867 5866 5866 5865 5864 5864 5863 5862 5862 5861 5860 5860 5859 5859 5858 5858 5858 5858 5858 5858 5858 5858 5858 5858 5858 5858 5859 5859 5860 5860 5861 5862 5862
5878 5877 5876 5874 5873 5872 5870 5869 5868 5867 5866 5865 5864 5863 5862 5861 5860 5859 5858 5858 5857 5856 5856 5855 5855 5855 5855 5855 5855 5855 5855 5855 5855 5855 5855 5855 5856 5856 5857 5858 5858 5859 5860
5877 5875 5874 5873 5871 5870 5869 5867 5866 5865 5864 5862 5861 5860 5859 5858 5857 5856 5855 5854 5853 5853 5852 5852 5851 5851 5851 5851 5851 5851 5851 5851 5852 5852 5852 5853 5853 5853 5854 5854 5855 5856 5857
5876 5874 5872 5871 5870 5868 5867 5865 5864 5863 5862 5860 5859 5858 5856 5855 5854 5853 5852 5851 5850 5849 5848 5848 5847 5847 5847 5847 5847 5847 5848 5848 5848 5848 5849 5849 5849 5850 5850 5851 5852 5853 5854
5874 5872 5870 5869 5867 5866 5865 5863 5862 5860 5859 5858 5856 5855 5853 5852 5851 5849 5848 5847 5846 5845 5844 5844 5843 5843 5842 5842 5842 5842 5843 5843 5844 5844 5845 5845 5846 5846 5846 5847 5848 5849 5850
5872 5870 5868 5866 5865 5864 5862 5861 5859 5857 5856 5855 5853 5852 5850 5849 5847 5846 5844 5843 5842 5842 5841 5840 5840 5839 5838 5838 5837 5837 5838 5839 5839 5839 5840 5841 5842 5842 5843 5843 5844 5846 5847
5869 5867 5865 5864 5862 5861 5859 5857 5856 5854 5853 5851 5850 5848 5847 5845 5844 5842 5841 5839 5838 5837 5836 5836 5835 5835 5834 5834 5833 5833 5833 5834 5834 5835 5835 5836 5837 5838 5838 5839 5840 5841 5843
5867 5865 5862 5861 5859 5857 5856 5854 5852 5851 5849 5848 5846 5845 5843 5841 5840 5838 5837 5835 5834 5833 5832 5831 5831 5830 5830 5829 5829 5829 5829 5829 5829 5830 5831 5832 5832 5833 5834 5834 5836 5837 5838
5864 5862 5859 5857 5856 5854 5852 5850 5849 5847 5845 5843 5842 5840 5838 5837 5835 5834 5832 5831 5830 5829 5828 5827 5826 5826 5825 5825 5825 5824 5824 5824 5825 5825 5826 5826 5827 5828 5829 5830 5831 5832 5834
5861 5859 5856 5854 5852 5850 5848 5847 5845 5843 5841 5839 5837 5835 5834 5832 5830 5829 5827 5826 5825 5824 5823 5822 5821 5821 5820 5820 5820 5819 5819 5819 5819 5820 5820 5821 5822 5823 5824 5825 5826 5827 5828
5857 5855 5853 5850 5848 5846 5844 5842 5840 5839 5836 5834 5832 5830 5829 5827 5826 5824 5822 5821 5820 5818 5818 5817 5816 5815 5815 5814 5814 5814 5814 5814 5814 5815 5815 5816 5817 5818 5819 5820 5821 5822 5823
5853 5851 5848 5846 5844 5841 5839 5837 5835 5834 5832 5829 5827 5825 5824 5822 5820 5819 5817 5816 5814 5813 5812 5811 5811 5810 5809 5809 5808 5808 5808 5808 5808 5809 5810 5810 5811 5812 5813 5814 5815 5816 5817
5848 5845 5843 5841 5839 5837 5834 5832 5830 5828 5826 5823 5822 5820 5818 5816 5814 5813 5812 5810 5809 5808 5806 5806 5805 5804 5804 5803 5803 5802 5802 5802 5802 5803 5804 5804 5805 5806 5807 5808 5809 5810 5811
5843 5840 5837 5836 5833 5831 5829 5826 5824 5822 5820 5818 5816 5814 5812 5810 5808 5807 5806 5804 5803 5802 5800 5799 5799 5798 5798 5797 5797 5797 5796 5796 5796 5796 5797 5798 5799 5800 5801 5802 5803 5804 5805
5838 5835 5832 5830 5827 5824 5822 5820 5818 5816 5814 5812 5810 5808 5806 5804 5802 5801 5800 5798 5797 5795 5794 5793 5793 5793 5792 5791 5791 5790 5790 5790 5790 5790 5790 5791 5792 5793 5794 5795 5796 5797 5798
5832 5829 5826 5823 5821 5818 5816 5814 5812 5809 5807 5805 5803 5801 5799 5797 5796 5795 5793 5792 5790 5789 5788 5787 5787 5786 5786 5785 5784 5784 5784 5784 5784 5784 5784 5785 5785 5786 5787 5788 5789 5790 5791
5826 5823 5820 5817 5814 5812 5810 5807 5805 5803 5801 5798 5796 5794 5792 5791 5789 5788 5786 5785 5783 5782 5781 5780 5780 5779 5779 5779 5778 5778 5777 5777 5777 5777 5778 5778 5778 5779 5779 5780 5782 5783 5784
5821 5818 5814 5811 5808 5806 5803 5801 5799 5796 5794 5792 5790 5788 5786 5784 5782 5780 5779 5778 5777 5775 5774 5774 5773 5773 5772 5772 5771 5771 5771 5770 5771 5771 5771 5771 5771 5772 5772 5773 5774 5775 5776
5815 5812 5808 5805 5802 5799 5796 5794 5792 5790 5787 5785 5782 5781 5779 5777 5776 5774 5772 5771 5770 5768 5767 5767 5766 5765 5765 5765 5764 5764 5764 5764 5764 5764 5764 5764 5764 5764 5765 5765 5766 5767 5768
5809 5806 5803 5799 5796 5793 5790 5787 5785 5783 5780 5778 5776 5774 5772 5771 5769 5767 5765 5764 5763 5761 5761 5760 5759 5758 5758 5758 5757 5757 5757 5757 5757 5757 5756 5756 5756 5756 5757 5757 5758 5759 5760
5803 5800 5796 5793 5790 5787 5784 5780 5777 5775 5773 5771 5769 5767 5765 5764 5762 5761 5759 5758 5756 5755 5754 5753 5752 5751 5750 5750 5750 5749 5749 5749 5749 5750 5749 5748 5748 5748 5749 5750 5750 5751 5752
5798 5794 5791 5787 5784 5780 5777 5774 5770 5767 5765 5763 5762 5760 5758 5757 5755 5754 5752 5751 5750 5749 5748 5746 5745 5744 5743 5742 5742 5742 5742 5742 5741 5741 5742 5741 5741 5741 5741 5742 5742 5743 5744
5792 5788 5785 5781 5777 5774 5770 5767 5764 5761 5758 5756 5755 5753 5751 5750 5748 5747 5746 5745 5744 5742 5741 5740 5739 5738 5737 5736 5735 5735 5735 5734 5734 5734 5733 5733 5733 5733 5733 5733 5734 5735 5736